Location: C�mpuri de-Sus
(45.9500°N, 22.5500°E)
Time: 04:38:17
(UTC+00:00)

CENTAUR R/B - Pass Details

Date: 24 October 2021
Orbit: 728 x 1459 km, 63.4° (Epoch: 26 November)

Event Time Altitude Azimuth Distance (km) Brightness Sun altitude
Rises 18:02:04 0° 317° (NW) 3,995 6.5 -27.3°
Reaches altitude 10° 18:05:00 10° 327° (NNW) 3,143 5.7 -27.8°
Maximum altitude 18:11:51 33° 30° (NNE) 2,087 4.0 -29.0°
Enters shadow 18:12:34 32° 39° (NE) 2,118 4.0 -29.1°
